Location: Flensburg
(54.6357°N, 9.5142°E)
Time: 03:35:25
(UTC+02:00)

ISS - Visible Passes

Search period start: 21 September 2017 00:00
Search period end: 01 October 2017 00:00
Orbit: 402 x 407 km, 51.6° (Epoch: 21 September)

Date Brightness Start Highest point End Pass type
(mag) Time Alt. Az. Time Alt. Az. Time Alt. Az.
27 Sep -1.7 21:11:23 10° SSW 21:12:33 17° SSW 21:12:33 17° SSW visible
28 Sep -2.1 20:19:37 10° SSW 20:21:54 18° SSE 20:22:31 17° SE visible
28 Sep -1.1 21:54:43 10° WSW 21:55:11 13° WSW 21:55:11 13° WSW visible
29 Sep -2.8 21:02:31 10° SW 21:05:01 32° S 21:05:01 32° S visible
30 Sep -2.6 20:10:26 10° SW 20:13:16 27° SSE 20:14:44 19° ESE visible
30 Sep -1.6 21:46:09 10° WSW 21:47:23 20° WSW 21:47:23 20° WSW visible
